Location: *
(50.3440°N, 18.6237°E)
Time: 17:58:22
(UTC+00:00)

ADEOS Rocket - Pass Details

Date: 30 November 2020
Orbit: 859 x 1306 km, 98.7° (Epoch: 17 January)

Event Time Altitude Azimuth Distance (km) Brightness Sun altitude
Rises 15:08:56 0° 16° (NNE) 4,248 5.9 -4.0°
Reaches altitude 10° 15:11:39 10° 20° (NNE) 3,305 5.3 -4.4°
Maximum altitude 15:19:21 62° 100° (E) 1,451 3.7 -5.5°
Drops below altitude 10° 15:26:58 10° 181° (S) 3,278 6.1 -6.5°
Sets 15:29:39 0° 184° (S) 4,212 6.8 -6.9°
